Historique des stations

Station météo de Colombiers

Altitude de la station : 182 m







Données météorologiques pour le 18/05/2021
Date
Heure
Températures Humidité Point de rosée Vitesse
du vent
Direction Rafales Windchill Pression Pluviométrie
Cumul
Date
Heure
Températures Humidité Point de rosée Vitesse
du vent
Direction Rafales Windchill Pression Pluviométrie
Cumul
18/05/2021 12:5015.3 °C67 %9.2 °C4 km/hSO13 km/h01017 hPa0.2 mm
18/05/2021 12:3015.1 °C72 %10.1 °C5 km/hOSO11 km/h01017 hPa0.2 mm
18/05/2021 12:2014.6 °C72 %9.6 °C6 km/hO15 km/h01017 hPa0.2 mm
18/05/2021 12:0014.1 °C75 %9.7 °C5 km/hSO11 km/h01018 hPa0.2 mm
18/05/2021 11:5013.4 °C78 %9.7 °C4 km/hSO15 km/h01018 hPa0.2 mm
18/05/2021 11:3013.1 °C79 %9.6 °C6 km/hOSO11 km/h01018 hPa0.2 mm
18/05/2021 11:2012.8 °C81 %9.6 °C5 km/hSO13 km/h01018 hPa0.2 mm
18/05/2021 11:0012 °C83 %9.2 °C6 km/hO11 km/h01018 hPa0.2 mm
18/05/2021 10:5011.9 °C84 %9.3 °C6 km/hOSO11 km/h01018 hPa0.2 mm
18/05/2021 10:3011.6 °C85 %9.1 °C6 km/hOSO13 km/h01018 hPa0.2 mm
18/05/2021 10:2011.4 °C87 %9.4 °C7 km/hOSO13 km/h01019 hPa0.2 mm
18/05/2021 10:0011.2 °C89 %9.4 °C6 km/hO15 km/h01018 hPa0.2 mm
18/05/2021 09:5011.1 °C89 %9.3 °C7 km/hO15 km/h01019 hPa0.2 mm
18/05/2021 09:3010.7 °C91 %9.3 °C5 km/hSSO13 km/h01019 hPa0.2 mm
18/05/2021 09:2010.7 °C92 %9.5 °C3 km/hSSO8 km/h01019 hPa0.2 mm
18/05/2021 09:0010.6 °C92 %9.3 °C4 km/hSSE8 km/h01019 hPa0.2 mm
18/05/2021 08:5010.3 °C93 %9.2 °C3 km/hS8 km/h01019 hPa0.2 mm
18/05/2021 08:309.6 °C94 %8.6 °C2 km/hSSE6 km/h01019 hPa0.2 mm
18/05/2021 08:209.4 °C94 %8.5 °C4 km/hSSE6 km/h01019 hPa0.2 mm
18/05/2021 08:009.2 °C94 %8.3 °C4 km/hSSO8 km/h01019 hPa0.2 mm
18/05/2021 07:508.9 °C95 %8.2 °C2 km/hSSO5 km/h01019 hPa0.0 mm
18/05/2021 07:308.6 °C95 %7.9 °C2 km/hSO5 km/h01019 hPa0.0 mm
18/05/2021 07:208.4 °C96 %7.8 °C2 km/hSO5 km/h01019 hPa0.0 mm
18/05/2021 07:008.1 °C96 %7.5 °C1 km/hSO5 km/h01018 hPa0.0 mm
18/05/2021 06:507.9 °C96 %7.3 °C2 km/hSO5 km/h01019 hPa0.0 mm
18/05/2021 06:307.5 °C96 %6.9 °C1 km/hSO5 km/h01019 hPa0.0 mm
18/05/2021 06:207.3 °C96 %6.7 °C-2 km/h01018 hPa0.0 mm
18/05/2021 06:007.3 °C96 %6.7 °C-2 km/h01018 hPa0.0 mm
18/05/2021 05:507.3 °C97 %6.8 °C1 km/hOSO5 km/h01018 hPa0.0 mm
18/05/2021 05:306.8 °C96 %6.2 °C---01018 hPa0.0 mm
18/05/2021 05:206.7 °C96 %6.1 °C---01018 hPa0.0 mm
18/05/2021 05:006.7 °C95 %6 °C---01018 hPa0.0 mm
18/05/2021 04:506.8 °C95 %6.1 °C---01018 hPa0.0 mm
18/05/2021 04:307 °C95 %6.3 °C---01018 hPa0.0 mm
18/05/2021 04:207.1 °C94 %6.2 °C-OSO3 km/h01018 hPa0.0 mm
18/05/2021 04:007.2 °C94 %6.3 °C1 km/hOSO5 km/h01019 hPa0.0 mm
18/05/2021 03:507.3 °C94 %6.4 °C-OSO6 km/h01019 hPa0.0 mm
18/05/2021 03:307.2 °C93 %6.2 °C-2 km/h01019 hPa0.0 mm
18/05/2021 03:207.4 °C92 %6.2 °C-2 km/h01019 hPa0.0 mm
18/05/2021 03:007.8 °C92 %6.6 °C1 km/hOSO5 km/h01019 hPa0.0 mm
18/05/2021 02:507.9 °C92 %6.7 °C2 km/hSO6 km/h01019 hPa0.0 mm
18/05/2021 02:308.2 °C91 %6.8 °C4 km/hOSO8 km/h01019 hPa0.0 mm
18/05/2021 02:208.3 °C91 %7 °C3 km/hSO6 km/h01018 hPa0.0 mm
18/05/2021 01:508.8 °C91 %7.4 °C4 km/hSO10 km/h01019 hPa7.2 mm
18/05/2021 01:308.8 °C91 %7.4 °C2 km/hSO6 km/h01019 hPa7.2 mm
18/05/2021 01:208.8 °C91 %7.4 °C3 km/hSO8 km/h01019 hPa7.2 mm
18/05/2021 01:009 °C90 %7.4 °C4 km/hSO8 km/h01019 hPa7.2 mm
18/05/2021 00:509.2 °C89 %7.4 °C5 km/hOSO10 km/h01019 hPa7.2 mm
18/05/2021 00:309.4 °C88 %7.6 °C6 km/hOSO15 km/h01018 hPa7.2 mm
18/05/2021 00:209.5 °C88 %7.6 °C6 km/hSO13 km/h01018 hPa7.2 mm
18/05/2021 00:009.9 °C88 %8 °C8 km/hOSO16 km/h01018 hPa7.2 mm


Minima :

Température : 6.7 °C
Humidité : 67 %
Point de rosée : 6 °C
Vent moyen : 1 km/h
Windchill : 0
Pression atm. : 1017 hPa
Maxima :

Température : 15.3 °C
Humidité : 97 %
Point de rosée : 10.1 °C
Vent moyen : 8 km/h
Windchill : 0
Pression atm. : 1019 hPa
Rafales max : 16 km/h
Cumul de pluie sur 24H : 7.2 mm

Colombiers est une commune du département Cher (18).
La station météorologique du réseau de l'association la plus proche de Colombiers est celle de Culan



Icône Facebook Association Météo Centre Icône Twitter Association Météo Centre Icône Chaîne Youtube Association Météo Centre Icône contact Association Météo Centre Icône Insta Association Météo Centre